Weather History for Mobile Downtown, AL

Change the Weather History Date:

Friday, September 20, 2013

  Actual Average Record
Temperature  
Mean Temperature 83 °F -  
Max Temperature 88 °F 84 °F 95 °F (2005)
Min Temperature 78 °F 67 °F 57 °F (2006)
Cooling Degree Days 18    
Growing Degree Days 33 (Base 50)    
Moisture  
Dew Point 74 °F    
Average Humidity 80    
Maximum Humidity 90    
Minimum Humidity 63    
Precipitation  
Precipitation 0.23 in - - ()
Sea Level Pressure  
Sea Level Pressure 29.94 in    
Wind  
Wind Speed 9 mph (SE)    
Max Wind Speed 15 mph    
Max Gust Speed 22 mph    
Visibility 10 miles    
Events Rain    
Averages and records for this station are not official NWS values.
T = Trace of Precipitation, MM = Missing Value Source: NWS Daily Summary

Daily Weather History Graph

Daily Weather History Graph

Search for Another Location

Airport:

Trip Planner

Search our weather history database for the weather conditions in past years. The results will help you decide how hot, cold, wet, or windy it might be!

Date:

Astronomy

Sep. 20, 2013 Rise Set
Actual Time 6:39 AM CDT 6:51 PM CDT
Civil Twilight 6:15 AM CDT 7:15 PM CDT
Nautical Twilight 5:47 AM CDT 7:43 PM CDT
Astronomical Twilight 5:19 AM CDT 8:11 PM CDT
Moon 7:34 PM CDT (9/20) 7:45 AM CDT (9/20)
Length of Visible Light 12h 59m
Length of Day
12h 11m
Full, 98% of the Moon is Illuminated
Sep 20
Full
Sep 26
Last Quarter
Oct 4
New
Oct 11
First Quarter
Oct 18
Full

Hourly Weather History & Observations

Time (CDT) Temp. Heat Index Dew Point Humidity Pressure Visibility Wind Dir Wind Speed Gust Speed Precip Events Conditions
12:53 AM 80.1 °F 84.2 °F 73.0 °F 79% 30.04 in 10.0 mi ESE 6.9 mph - N/A   Clear
1:53 AM 80.1 °F 84.5 °F 73.9 °F 81% 30.02 in 10.0 mi East 8.1 mph - N/A   Clear
2:53 AM 79.0 °F - 73.9 °F 84% 30.01 in 10.0 mi East 8.1 mph - N/A   Clear
3:26 AM 78.8 °F - 73.4 °F 83% 30.00 in 10.0 mi East 9.2 mph - N/A   Clear
3:53 AM 79.0 °F - 73.9 °F 84% 30.00 in 10.0 mi East 6.9 mph - N/A   Clear
4:53 AM 79.0 °F - 73.9 °F 84% 30.00 in 10.0 mi East 9.2 mph - N/A   Clear
5:53 AM 78.1 °F - 73.9 °F 87% 30.00 in 10.0 mi East 9.2 mph - N/A   Clear
6:53 AM 78.1 °F - 73.9 °F 87% 29.99 in 10.0 mi East 13.8 mph - N/A   Partly Cloudy
7:53 AM 79.0 °F - 73.9 °F 84% 30.01 in 10.0 mi East 10.4 mph - N/A   Partly Cloudy
8:53 AM 81.0 °F 85.8 °F 73.0 °F 77% 30.01 in 10.0 mi East 10.4 mph - N/A   Partly Cloudy
9:53 AM 82.9 °F 89.4 °F 73.9 °F 74% 30.01 in 10.0 mi East 8.1 mph - N/A   Clear
10:53 AM 86.0 °F 93.8 °F 73.9 °F 67% 30.00 in 10.0 mi SE 8.1 mph - N/A   Scattered Clouds
11:53 AM 88.0 °F 96.5 °F 73.9 °F 63% 29.99 in 10.0 mi SSE 10.4 mph 18.4 mph N/A   Scattered Clouds
12:53 PM 88.0 °F 96.5 °F 73.9 °F 63% 29.96 in 10.0 mi SSE 12.7 mph 18.4 mph N/A   Scattered Clouds
1:53 PM 86.0 °F 93.8 °F 73.9 °F 67% 29.93 in 10.0 mi SSE 12.7 mph 18.4 mph N/A   Scattered Clouds
2:53 PM 84.9 °F 93.3 °F 75.0 °F 72% 29.91 in 10.0 mi South 10.4 mph - N/A   Scattered Clouds
3:53 PM 84.0 °F 91.9 °F 75.0 °F 74% 29.89 in 10.0 mi SSE 11.5 mph - N/A   Scattered Clouds
4:53 PM 84.0 °F 91.2 °F 73.9 °F 72% 29.88 in 10.0 mi SSE 15.0 mph 21.9 mph N/A   Scattered Clouds
5:53 PM 82.9 °F 89.4 °F 73.9 °F 74% 29.88 in 10.0 mi SSE 11.5 mph - N/A   Partly Cloudy
6:53 PM 82.9 °F 89.4 °F 73.9 °F 74% 29.88 in 10.0 mi SSE 8.1 mph - N/A   Clear
7:53 PM 82.9 °F 90.2 °F 75.0 °F 77% 29.89 in 10.0 mi SSE 8.1 mph - N/A   Scattered Clouds
8:26 PM 78.8 °F - 75.2 °F 89% 29.91 in 10.0 mi SSE 8.1 mph - 0.13 in   Overcast
8:53 PM 79.0 °F - 75.9 °F 90% 29.90 in 10.0 mi Calm Calm - 0.13 in   Mostly Cloudy
9:02 PM 78.8 °F - 75.2 °F 89% 29.90 in 10.0 mi Calm Calm - N/A   Scattered Clouds
9:14 PM 78.8 °F - 75.2 °F 89% 29.89 in 10.0 mi SSE 4.6 mph - N/A   Mostly Cloudy
9:22 PM 80.6 °F 86.2 °F 75.2 °F 84% 29.89 in 10.0 mi South 4.6 mph - N/A   Scattered Clouds
9:34 PM 80.6 °F 86.2 °F 75.2 °F 84% 29.89 in 10.0 mi SSE 11.5 mph - N/A   Mostly Cloudy
9:53 PM 80.1 °F 85.4 °F 75.9 °F 87% 29.89 in 8.0 mi SSE 6.9 mph 18.4 mph 0.02 in Rain Light Rain
10:07 PM 80.6 °F 86.2 °F 75.2 °F 84% 29.89 in 9.0 mi South 9.2 mph - 0.03 in Rain Light Rain
10:53 PM 81.0 °F 87.3 °F 75.9 °F 85% 29.87 in 10.0 mi SSE 8.1 mph - 0.07 in   Scattered Clouds
11:53 PM 81.0 °F 86.7 °F 75.0 °F 82% 29.86 in 10.0 mi SSE 10.4 mph 16.1 mph 0.01 in   Partly Cloudy